Regional Weather Roundup
Issued by NWS

Home | Current Version | Previous Version | Graphics & Text | Print | Product List | Glossary On
Versions: 1 2 3 4 5 6 7 8 9 10 11 12 13 14 15 16 17 18 19 20 21 22 23 24 25 26 27 28 29 30 31 32 33 34 35 36 37 38 39 40 41 42 43 44 45 46 47 48 49 50
000
ASUS45 KBOU 081007
RWRCO

WEATHER ROUNDUP FOR COLORADO
NATIONAL WEATHER SERVICE DENVER/BOULDER CO
300 AM MST MON FEB 08 2016

NOTE: "FAIR" INDICATES FEW OR NO CLOUDS BELOW 12000 FEET WITH NO
SIGNIFICANT WEATHER AND/OR OBSTRUCTIONS TO VISIBILITY.

COZ001>005-013-030-031-081100-
...NORTHWEST COLORADO...

CITY           SKY/WX    TMP DP  RH WIND       PRES   REMARKS
CRAIG          CLOUDY    -3  -8  79 CALM      30.55F
HAYDEN         CLOUDY    14   9  79 E6        30.51F WCI   5
MEEKER         CLOUDY     9   4  80 CALM      30.55S
MOUNT WERNER   NOT AVBL
STEAMBOAT SPGS CLOUDY    17  14  86 CALM      30.51F
WALDEN         CLOUDY    25  16  68 S9        30.45R WCI  15
$$

COZ006>008-011-081100-
...WEST CENTRAL VALLEYS...

CITY           SKY/WX    TMP DP  RH WIND       PRES   REMARKS
GRAND JUNCTION CLOUDY    14  12  92 E3        30.57R
MONTROSE       CLOUDY    15   9  76 S8        30.58R WCI   4
EAGLE          CLOUDY    12  10  92 CALM      30.59S
RIFLE          CLOUDY    13   8  81 CALM      30.58S
DELTA          CLOUDY    20  16  85 CALM      30.58S
NUCLA          NOT AVBL
$$

COZ017>023-064>068-081100-
...SOUTHWEST COLORADO...

CITY           SKY/WX    TMP DP  RH WIND       PRES   REMARKS
DURANGO        CLOUDY    11   8  88 CALM      30.43R
CORTEZ         CLOUDY    15  11  83 NE6       30.45R WCI   6
PAGOSA SPRINGS CLOUDY    15  14  95 CALM      30.42S
TELLURIDE      NOT AVBL
WOLF CREEK PAS CLOUDY    25   3  39 S8        30.50R WCI  16
$$

COZ009-010-012-014-032>034-037-058>063-081100-
...CENTRAL COLORADO...

CITY           SKY/WX    TMP DP  RH WIND       PRES   REMARKS
ASPEN          CLOUDY    12   6  77 S7        30.53S WCI   1
BUENA VISTA    CLOUDY    31  12  45 N25G37    30.34F WCI  17
COPPER MTN     CLOUDY    19  10  68 W10G16    30.47S WCI   8
BERTHOUD PASS  CLOUDY    12   1  62 NW47G59   30.34F HAZE    WCI -13
COTTONWOOD PAS CLOUDY    36   7  30 W18G32    30.36F
GUNNISON       CLOUDY    -8 -17  65 CALM      30.56R
KREMMLING      CLOUDY    21  14  73 CALM      30.51S
LEADVILLE      CLOUDY    15   7  70 N5        30.47S WCI   8
MONARCH PASS   CLOUDY    12   7  79 MISG      30.52S
SALIDA         NOT AVBL
SUNLIGHT       CLOUDY    19  14  79 NW6         N/A  WCI  11
WILKERSON PASS CLOUDY    23  10  58 NW22G51   30.31F WCI   8
$$

COZ069>075-081100-
...SAN LUIS VALLEY/SANGRE DE CRISTO MOUNTAINS...

CITY           SKY/WX    TMP DP  RH WIND       PRES   REMARKS
ALAMOSA        CLOUDY    10   5  80 SW7       30.41R WCI  -1
LA VETA PASS   CLOUDY    21   9  58 MISG      30.35S
SAGUACHE       CLOUDY    27  12  54 NW10      30.42R WCI  17
$$

COZ035-036-038>040-081100-
...NORTHERN COLORADO FRONT RANGE...

CITY           SKY/WX    TMP DP  RH WIND       PRES   REMARKS
DENVER INTL AP CLOUDY    22  14  71 S13       30.34F WCI  10
DMNS CITY PARK   N/A     24  15  68 SE6G13    30.35F WCI  16
AURORA         MOCLDY    19  13  76 S12       30.35F WCI   7
FRONT RANGE AP NOT AVBL
ERIE MUNI ARPT CLOUDY    24  17  75 SW3       30.35F
BOULDER MUN AP CLOUDY    23  19  86 SW5       30.35F WCI  17
CENTENNIAL     CLOUDY    20  15  81 SE13      30.35S WCI   7
BROOMFIELD     CLOUDY    23  19  86 S8        30.35S WCI  14
FORT COLLINS   CLOUDY    21  16  79 S5        30.37F WCI  15
LONGMONT       CLOUDY    21  16  80 CALM      30.38F
$$

COZ041-046-047-076>085-087-088-081100-
...PIKES PEAK/PALMER DIVIDE AND SOUTHERN FOOTHILLS...

CITY           SKY/WX    TMP DP  RH WIND       PRES   REMARKS
COLO. SPRINGS  CLOUDY    23  19  85 SW3       30.38S
A. F. ACADEMY  CLOUDY    21  19  91 W1        30.36R
SCHRIEVER AFB  NOT AVBL
ELLICOTT       NOT AVBL
FALCON         CLOUDY    20  19  98 CALM      30.36S
FORT CARSON    CLOUDY    24  20  83 S2        30.37S
LIMON          CLOUDY    13   8  81 CALM      30.35F
MONUMENT HILL  CLOUDY    12  10  92 S9        30.34F FOG     WCI   0
TRINIDAD       CLOUDY    24  20  84 CALM      30.39F
$$

COZ042>045-048>051-090-091-081100-
...NORTHEAST COLORADO...

CITY           SKY/WX    TMP DP  RH WIND       PRES   REMARKS
GREELEY ARPT   CLOUDY    19  18  93 NE3       30.40S
AKRON          CLOUDY    21  12  68 NW18      30.34S WCI   6
BURLINGTON     CLEAR     21  10  62 NW18      30.33S WCI   6
WRAY           CLEAR     28  11  51 NW24      30.34S WCI  13
STERLING       CLOUDY    23  12  63 N12       30.35F WCI  12
HOLYOKE        CLEAR     30  12  47 NW16G28   30.32S WCI  19
FORT MORGAN    CLOUDY    17  14  88 W6        30.39S WCI   8
$$

COZ086-089-092>099-081100-
...SOUTHEAST COLORADO...

CITY           SKY/WX    TMP DP  RH WIND       PRES   REMARKS
PUEBLO         CLOUDY    30  21  69 CALM      30.41F
LA JUNTA       CLOUDY    27  21  78 W10       30.43R WCI  17
LAMAR          CLEAR     25  16  68 W13       30.41R WCI  14
SPRINGFIELD      N/A     20  15  81 NW9       30.38F WCI   9
$$



USA.gov is the U.S. government's official web portal to all federal, state and local government web resources and services.